Location: Hermaringen
(48.5952°N, 10.2585°E)
Time: 21:27:38
(UTC+00:00)

Cosmos 2369 Rocket - Pass Details

Date: 18 November 2025
Orbit: 826 x 853 km, 71.0° (Epoch: 10 December)

Event Time Altitude Azimuth Distance (km) Brightness Sun altitude
Rises 17:45:52 0° 172° (S) 3,356 5.3 -21.2°
Reaches altitude 10° 17:48:35 10° 161° (SSE) 2,431 4.4 -21.7°
Enters shadow 17:50:15 18° 149° (SSE) 1,944 3.8 -21.9°
